Seeley, CA

2:33 PM PST on February 23, 2017 (GMT -0800)
El Centro Naval Air Facility

Weather History for KNJK - November, 2012

Change the Weather History Date:

Thursday, November 15, 2012

  Actual Average Record
Temperature  
Mean Temperature 62 °F -  
Max Temperature 69 °F 76 °F 90 °F (1999)
Min Temperature 55 °F 50 °F 43 °F (2000)
Degree Days  
Heating Degree Days 3    
Growing Degree Days 12 (Base 50)    
Moisture  
Dew Point 29 °F    
Average Humidity 30    
Maximum Humidity 53    
Minimum Humidity 17    
Precipitation  
Precipitation 0.00 in - - ()
Sea Level Pressure  
Sea Level Pressure 30.09 in    
Wind  
Wind Speed 4 mph (SSW)    
Max Wind Speed 7 mph    
Max Gust Speed -    
Visibility 10 miles    
Events      
Averages and records for this station are not official NWS values.
T = Trace of Precipitation, MM = Missing Value Source: NWS Daily Summary

Daily Weather History Graph

Daily Weather History Graph

Search for Another Location

Airport or City:

Trip Planner

Search our weather history database for the weather conditions in past years. The results will help you decide how hot, cold, wet, or windy it might be!

Date:

Astronomy

Nov. 15, 2012 Rise Set
Actual Time 6:13 AM PST 4:41 PM PST
Civil Twilight 5:47 AM PST 5:07 PM PST
Nautical Twilight 5:17 AM PST 5:37 PM PST
Astronomical Twilight 4:48 AM PST 6:06 PM PST
Moon 8:10 AM PST (11/15) 6:40 PM PST (11/15)
Length of Visible Light 11h 19m
Length of Day
10h 27m
Waxing Crescent, 5% of the Moon is Illuminated
Nov 15
Waxing Crescent
Nov 20
First Quarter
Nov 28
Full
Dec 6
Last Quarter
Dec 13
New

Hourly Weather History & Observations

Time (PST) Temp. Dew Point Humidity Pressure Visibility Wind Dir Wind Speed Gust Speed Precip Events Conditions
12:56 AM 55.9 °F 23.0 °F 28% 30.07 in 10.0 mi West 5.8 mph - N/A   Clear
1:56 AM 55.0 °F 21.0 °F 27% 30.05 in 10.0 mi West 5.8 mph - N/A   Clear
2:56 AM 55.9 °F 21.0 °F 26% 30.06 in 10.0 mi West 3.5 mph - N/A   Clear
3:56 AM 55.0 °F 25.0 °F 31% 30.04 in 10.0 mi West 3.5 mph - N/A   Clear
4:56 AM 57.0 °F 18.0 °F 22% 30.07 in 10.0 mi WSW 6.9 mph - N/A   Clear
5:56 AM 55.9 °F 19.9 °F 25% 30.08 in 10.0 mi West 3.5 mph - N/A   Clear
6:56 AM 55.9 °F 23.0 °F 28% 30.08 in 10.0 mi Calm Calm - N/A   Mostly Cloudy
7:56 AM 59.0 °F 19.0 °F 21% 30.11 in 10.0 mi SW 4.6 mph - N/A   Overcast
8:56 AM 60.1 °F 23.0 °F 24% 30.14 in 10.0 mi Calm Calm - N/A   Overcast
9:56 AM 64.9 °F 19.0 °F 17% 30.13 in 10.0 mi Calm Calm - N/A   Overcast
10:56 AM 66.9 °F 24.1 °F 20% 30.12 in 10.0 mi South 3.5 mph - N/A   Overcast
11:56 AM 68.0 °F 32.0 °F 26% 30.11 in 10.0 mi South 5.8 mph - N/A   Overcast
12:56 PM 69.1 °F 32.0 °F 25% 30.09 in 10.0 mi East 3.5 mph - N/A   Overcast
1:56 PM 69.1 °F 33.1 °F 26% 30.10 in 10.0 mi Calm Calm - N/A   Overcast
2:56 PM 69.1 °F 36.0 °F 30% 30.08 in 10.0 mi ESE 5.8 mph - N/A   Overcast
3:56 PM 69.1 °F 30.9 °F 24% 30.09 in 10.0 mi SE 4.6 mph - N/A   Overcast
4:56 PM 66.0 °F 34.0 °F 30% 30.08 in 10.0 mi SSE 4.6 mph - N/A   Overcast
5:56 PM 66.0 °F 33.1 °F 29% 30.07 in 10.0 mi SE 4.6 mph - N/A   Overcast
6:56 PM 62.1 °F 28.9 °F 29% 30.08 in 10.0 mi Calm Calm - N/A   Overcast
7:56 PM 60.1 °F 37.0 °F 42% 30.08 in 10.0 mi NE 3.5 mph - N/A   Overcast
8:56 PM 60.1 °F 39.9 °F 47% 30.10 in 10.0 mi Calm Calm - N/A   Overcast
9:56 PM 57.9 °F 37.9 °F 47% 30.09 in 10.0 mi Calm Calm - N/A   Mostly Cloudy
10:56 PM 55.9 °F 39.0 °F 53% 30.09 in 10.0 mi Calm Calm - N/A   Mostly Cloudy
11:56 PM 55.0 °F 37.0 °F 51% 30.08 in 10.0 mi Calm Calm - N/A   Clear